Simultaneous Nadir Overpasses (SNOs) Predictions

Prediction of SNOs between AQUA and GOES-15 Satellite Orbit:

Table of predicted SNOs for the next 14.0 days since TLE Epoch: 12/9/2016
Index Date Time (AQUA) AQUA Lat,Lon GOES-15 Lat,Lon Distance(km) Time Diff (sec)
1 12/10/2016 22:22:29 0.74,-131.93 0.03,-135.30 382.84 80
2 12/11/2016 10:43:45 0.33,-137.09 -0.04,-135.33 200.30 80
3 12/13/2016 10:31:33 -0.28,-134.13 -0.03,-135.30 132.96 80
4 12/13/2016 22:52:57 -0.82,-139.32 0.05,-135.25 462.89 80
5 12/15/2016 10:19:21 -0.89,-131.17 -0.03,-135.26 465.64 80
6 12/15/2016 22:40:45 -0.20,-136.36 0.04,-135.21 130.25 80
7 12/17/2016 22:28:33 0.43,-133.40 0.04,-135.17 202.05 80
8 12/18/2016 10:49:48 0.65,-138.56 -0.05,-135.20 381.31 80
9 12/20/2016 10:37:36 0.01,-135.60 -0.05,-135.16 49.34 80
10 12/22/2016 10:25:24 -0.57,-132.62 -0.05,-135.11 282.55 80
11 12/22/2016 22:46:47 -0.51,-137.82 0.06,-135.06 313.63 80




NCC Satellite Simultaneous Nadir Overpasses (SNOs) Prediction Service
